owner,sensor,date,latitude,longitude,vertical_datum,sea_water_practical_salinity,qcFlag 
TCOON,ioos:station:TCOON:043:1,2014-07-01T00:30:00Z,27.8838,-97.5332,0.0,27.0,1111122 
TCOON,ioos:station:TCOON:043:1,2014-07-01T01:30:00Z,27.8838,-97.5332,0.0,27.6,1111122 
TCOON,ioos:station:TCOON:043:1,2014-07-01T02:30:00Z,27.8838,-97.5332,0.0,27.7,1111122 
TCOON,ioos:station:TCOON:043:1,2014-07-01T03:30:00Z,27.8838,-97.5332,0.0,27.3,1111122 
TCOON,ioos:station:TCOON:043:1,2014-07-01T04:30:00Z,27.8838,-97.5332,0.0,26.1,1111122 
TCOON,ioos:station:TCOON:043:1,2014-07-01T05:30:00Z,27.8838,-97.5332,0.0,23.0,1111122 
TCOON,ioos:station:TCOON:043:1,2014-07-01T07:00:00Z,27.8838,-97.5332,0.0,22.3,1111122 
TCOON,ioos:station:TCOON:043:1,2014-07-01T07:30:00Z,27.8838,-97.5332,0.0,21.7,1111122 
TCOON,ioos:station:TCOON:043:1,2014-07-01T08:30:00Z,27.8838,-97.5332,0.0,21.6,1111122 
TCOON,ioos:station:TCOON:043:1,2014-07-01T09:30:00Z,27.8838,-97.5332,0.0,20.9,1111122 
TCOON,ioos:station:TCOON:043:1,2014-07-01T10:30:00Z,27.8838,-97.5332,0.0,20.6,1111122 
TCOON,ioos:station:TCOON:043:1,2014-07-01T11:30:00Z,27.8838,-97.5332,0.0,19.9,1111122 
TCOON,ioos:station:TCOON:043:1,2014-07-01T12:30:00Z,27.8838,-97.5332,0.0,19.4,1111122 
TCOON,ioos:station:TCOON:043:1,2014-07-01T13:30:00Z,27.8838,-97.5332,0.0,18.8,1111122 
TCOON,ioos:station:TCOON:043:1,2014-07-01T14:30:00Z,27.8838,-97.5332,0.0,18.8,1111122 
TCOON,ioos:station:TCOON:043:1,2014-07-01T15:30:00Z,27.8838,-97.5332,0.0,18.5,1111122 
TCOON,ioos:station:TCOON:043:1,2014-07-01T16:30:00Z,27.8838,-97.5332,0.0,18.3,1111122 
TCOON,ioos:station:TCOON:043:1,2014-07-01T17:30:00Z,27.8838,-97.5332,0.0,17.2,1111122 
TCOON,ioos:station:TCOON:043:1,2014-07-01T18:30:00Z,27.8838,-97.5332,0.0,16.4,1111122 
TCOON,ioos:station:TCOON:043:1,2014-07-01T19:30:00Z,27.8838,-97.5332,0.0,16.1,1111122 
TCOON,ioos:station:TCOON:043:1,2014-07-01T20:30:00Z,27.8838,-97.5332,0.0,16.2,1111122 
TCOON,ioos:station:TCOON:043:1,2014-07-01T21:30:00Z,27.8838,-97.5332,0.0,16.6,1111122 
TCOON,ioos:station:TCOON:043:1,2014-07-01T22:30:00Z,27.8838,-97.5332,0.0,17.5,1111122 
TCOON,ioos:station:TCOON:043:1,2014-07-01T23:30:00Z,27.8838,-97.5332,0.0,18.0,1111122 
TCOON,ioos:station:TCOON:043:1,2014-07-02T00:30:00Z,27.8838,-97.5332,0.0,18.9,1111122 
TCOON,ioos:station:TCOON:043:1,2014-07-02T01:30:00Z,27.8838,-97.5332,0.0,18.6,1111122 
TCOON,ioos:station:TCOON:043:1,2014-07-02T02:30:00Z,27.8838,-97.5332,0.0,17.9,1111122 
TCOON,ioos:station:TCOON:043:1,2014-07-02T03:30:00Z,27.8838,-97.5332,0.0,13.7,1111122 
TCOON,ioos:station:TCOON:043:1,2014-07-02T04:30:00Z,27.8838,-97.5332,0.0,11.9,1111122 
TCOON,ioos:station:TCOON:043:1,2014-07-02T05:30:00Z,27.8838,-97.5332,0.0,11.2,1111122 
TCOON,ioos:station:TCOON:043:1,2014-07-02T07:00:00Z,27.8838,-97.5332,0.0,11.7,1111122 
TCOON,ioos:station:TCOON:043:1,2014-07-02T07:30:00Z,27.8838,-97.5332,0.0,12.1,1111122 
TCOON,ioos:station:TCOON:043:1,2014-07-02T08:30:00Z,27.8838,-97.5332,0.0,12.6,1111122 
TCOON,ioos:station:TCOON:043:1,2014-07-02T09:30:00Z,27.8838,-97.5332,0.0,11.7,1111122 
TCOON,ioos:station:TCOON:043:1,2014-07-02T10:30:00Z,27.8838,-97.5332,0.0,11.6,1111122 
TCOON,ioos:station:TCOON:043:1,2014-07-02T11:30:00Z,27.8838,-97.5332,0.0,11.9,1111122 
TCOON,ioos:station:TCOON:043:1,2014-07-02T12:30:00Z,27.8838,-97.5332,0.0,11.8,1111122 
TCOON,ioos:station:TCOON:043:1,2014-07-02T13:30:00Z,27.8838,-97.5332,0.0,11.9,1111122 
TCOON,ioos:station:TCOON:043:1,2014-07-02T14:30:00Z,27.8838,-97.5332,0.0,11.6,1111122 
TCOON,ioos:station:TCOON:043:1,2014-07-02T15:30:00Z,27.8838,-97.5332,0.0,11.0,1111122 
TCOON,ioos:station:TCOON:043:1,2014-07-02T16:30:00Z,27.8838,-97.5332,0.0,10.5,1111122 
TCOON,ioos:station:TCOON:043:1,2014-07-02T17:30:00Z,27.8838,-97.5332,0.0,9.8,1111122 
TCOON,ioos:station:TCOON:043:1,2014-07-02T18:30:00Z,27.8838,-97.5332,0.0,9.2,1111122 
TCOON,ioos:station:TCOON:043:1,2014-07-02T19:30:00Z,27.8838,-97.5332,0.0,8.5,1111122 
TCOON,ioos:station:TCOON:043:1,2014-07-02T20:30:00Z,27.8838,-97.5332,0.0,7.9,1111122 
TCOON,ioos:station:TCOON:043:1,2014-07-02T21:30:00Z,27.8838,-97.5332,0.0,7.2,1111122 
TCOON,ioos:station:TCOON:043:1,2014-07-02T22:30:00Z,27.8838,-97.5332,0.0,6.5,1111122 
TCOON,ioos:station:TCOON:043:1,2014-07-02T23:30:00Z,27.8838,-97.5332,0.0,6.3,1111122 
TCOON,ioos:station:TCOON:043:1,2014-07-03T00:30:00Z,27.8838,-97.5332,0.0,6.1,1111122 
TCOON,ioos:station:TCOON:043:1,2014-07-03T01:30:00Z,27.8838,-97.5332,0.0,6.2,1111122 
TCOON,ioos:station:TCOON:043:1,2014-07-03T02:30:00Z,27.8838,-97.5332,0.0,6.4,1111122 
TCOON,ioos:station:TCOON:043:1,2014-07-03T03:30:00Z,27.8838,-97.5332,0.0,6.3,1111122 
TCOON,ioos:station:TCOON:043:1,2014-07-03T04:30:00Z,27.8838,-97.5332,0.0,6.4,1111122 
TCOON,ioos:station:TCOON:043:1,2014-07-03T05:30:00Z,27.8838,-97.5332,0.0,6.7,1111122 
TCOON,ioos:station:TCOON:043:1,2014-07-03T06:30:00Z,27.8838,-97.5332,0.0,7.4,1111122 
TCOON,ioos:station:TCOON:043:1,2014-07-03T07:30:00Z,27.8838,-97.5332,0.0,8.2,1111122 
TCOON,ioos:station:TCOON:043:1,2014-07-03T08:30:00Z,27.8838,-97.5332,0.0,8.8,1111122 
TCOON,ioos:station:TCOON:043:1,2014-07-03T09:30:00Z,27.8838,-97.5332,0.0,9.3,1111122 
TCOON,ioos:station:TCOON:043:1,2014-07-03T10:30:00Z,27.8838,-97.5332,0.0,9.6,1111122 
TCOON,ioos:station:TCOON:043:1,2014-07-03T11:30:00Z,27.8838,-97.5332,0.0,9.2,1111122 
TCOON,ioos:station:TCOON:043:1,2014-07-03T12:30:00Z,27.8838,-97.5332,0.0,9.0,1111122 
TCOON,ioos:station:TCOON:043:1,2014-07-03T13:30:00Z,27.8838,-97.5332,0.0,8.8,1111122 
TCOON,ioos:station:TCOON:043:1,2014-07-03T14:30:00Z,27.8838,-97.5332,0.0,8.6,1111122 
TCOON,ioos:station:TCOON:043:1,2014-07-03T15:30:00Z,27.8838,-97.5332,0.0,7.3,1111122 
TCOON,ioos:station:TCOON:043:1,2014-07-03T16:30:00Z,27.8838,-97.5332,0.0,7.2,1111122 
TCOON,ioos:station:TCOON:043:1,2014-07-03T17:30:00Z,27.8838,-97.5332,0.0,6.9,1111122 
TCOON,ioos:station:TCOON:043:1,2014-07-03T18:30:00Z,27.8838,-97.5332,0.0,6.6,1111122 
TCOON,ioos:station:TCOON:043:1,2014-07-03T19:30:00Z,27.8838,-97.5332,0.0,5.9,1111122 
TCOON,ioos:station:TCOON:043:1,2014-07-03T20:30:00Z,27.8838,-97.5332,0.0,5.0,1111122 
TCOON,ioos:station:TCOON:043:1,2014-07-03T21:30:00Z,27.8838,-97.5332,0.0,4.7,1111122 
TCOON,ioos:station:TCOON:043:1,2014-07-03T22:30:00Z,27.8838,-97.5332,0.0,4.6,1111122 
TCOON,ioos:station:TCOON:043:1,2014-07-03T23:30:00Z,27.8838,-97.5332,0.0,4.5,1111122 
TCOON,ioos:station:TCOON:043:1,2014-07-04T00:30:00Z,27.8838,-97.5332,0.0,4.5,1111122 
TCOON,ioos:station:TCOON:043:1,2014-07-04T01:30:00Z,27.8838,-97.5332,0.0,4.5,1111122 
TCOON,ioos:station:TCOON:043:1,2014-07-04T02:30:00Z,27.8838,-97.5332,0.0,4.6,1111122 
TCOON,ioos:station:TCOON:043:1,2014-07-04T03:30:00Z,27.8838,-97.5332,0.0,4.8,1111122 
TCOON,ioos:station:TCOON:043:1,2014-07-04T04:30:00Z,27.8838,-97.5332,0.0,4.9,1111122 
TCOON,ioos:station:TCOON:043:1,2014-07-04T05:30:00Z,27.8838,-97.5332,0.0,5.0,1111122 
TCOON,ioos:station:TCOON:043:1,2014-07-04T07:00:00Z,27.8838,-97.5332,0.0,4.8,1111122 
TCOON,ioos:station:TCOON:043:1,2014-07-04T07:30:00Z,27.8838,-97.5332,0.0,4.6,1111122 
TCOON,ioos:station:TCOON:043:1,2014-07-04T08:30:00Z,27.8838,-97.5332,0.0,4.6,1111122 
TCOON,ioos:station:TCOON:043:1,2014-07-04T09:30:00Z,27.8838,-97.5332,0.0,4.6,1111122 
TCOON,ioos:station:TCOON:043:1,2014-07-04T10:30:00Z,27.8838,-97.5332,0.0,4.7,1111122 
TCOON,ioos:station:TCOON:043:1,2014-07-04T11:30:00Z,27.8838,-97.5332,0.0,4.9,1111122 
TCOON,ioos:station:TCOON:043:1,2014-07-04T12:30:00Z,27.8838,-97.5332,0.0,5.6,1111122 
TCOON,ioos:station:TCOON:043:1,2014-07-04T13:30:00Z,27.8838,-97.5332,0.0,6.0,1111122 
TCOON,ioos:station:TCOON:043:1,2014-07-04T14:30:00Z,27.8838,-97.5332,0.0,6.1,1111122 
TCOON,ioos:station:TCOON:043:1,2014-07-04T15:30:00Z,27.8838,-97.5332,0.0,6.0,1111122 
TCOON,ioos:station:TCOON:043:1,2014-07-04T16:30:00Z,27.8838,-97.5332,0.0,5.6,1111122 
TCOON,ioos:station:TCOON:043:1,2014-07-04T17:30:00Z,27.8838,-97.5332,0.0,5.2,1111122 
TCOON,ioos:station:TCOON:043:1,2014-07-04T18:30:00Z,27.8838,-97.5332,0.0,4.6,1111122 
TCOON,ioos:station:TCOON:043:1,2014-07-04T19:30:00Z,27.8838,-97.5332,0.0,4.0,1111122 
TCOON,ioos:station:TCOON:043:1,2014-07-04T20:30:00Z,27.8838,-97.5332,0.0,3.7,1111122 
TCOON,ioos:station:TCOON:043:1,2014-07-04T21:30:00Z,27.8838,-97.5332,0.0,3.7,1111122 
TCOON,ioos:station:TCOON:043:1,2014-07-04T22:30:00Z,27.8838,-97.5332,0.0,3.7,1111122 
TCOON,ioos:station:TCOON:043:1,2014-07-04T23:30:00Z,27.8838,-97.5332,0.0,3.7,1111122 
TCOON,ioos:station:TCOON:043:1,2014-07-05T00:30:00Z,27.8838,-97.5332,0.0,3.8,1111122 
TCOON,ioos:station:TCOON:043:1,2014-07-05T01:30:00Z,27.8838,-97.5332,0.0,3.8,1111122 
TCOON,ioos:station:TCOON:043:1,2014-07-05T02:30:00Z,27.8838,-97.5332,0.0,3.7,1111122 
TCOON,ioos:station:TCOON:043:1,2014-07-05T03:30:00Z,27.8838,-97.5332,0.0,4.1,1111122 
TCOON,ioos:station:TCOON:043:1,2014-07-05T04:30:00Z,27.8838,-97.5332,0.0,4.4,1111122 
TCOON,ioos:station:TCOON:043:1,2014-07-05T05:30:00Z,27.8838,-97.5332,0.0,4.2,1111122 
TCOON,ioos:station:TCOON:043:1,2014-07-05T06:30:00Z,27.8838,-97.5332,0.0,4.3,1111122 
TCOON,ioos:station:TCOON:043:1,2014-07-05T07:30:00Z,27.8838,-97.5332,0.0,4.4,1111122 
TCOON,ioos:station:TCOON:043:1,2014-07-05T08:30:00Z,27.8838,-97.5332,0.0,4.2,1111122 
TCOON,ioos:station:TCOON:043:1,2014-07-05T09:30:00Z,27.8838,-97.5332,0.0,4.2,1111122 
TCOON,ioos:station:TCOON:043:1,2014-07-05T10:30:00Z,27.8838,-97.5332,0.0,3.9,1111122 
TCOON,ioos:station:TCOON:043:1,2014-07-05T11:30:00Z,27.8838,-97.5332,0.0,4.0,1111122 
TCOON,ioos:station:TCOON:043:1,2014-07-05T12:30:00Z,27.8838,-97.5332,0.0,4.2,1111122 
TCOON,ioos:station:TCOON:043:1,2014-07-05T13:30:00Z,27.8838,-97.5332,0.0,4.1,1111122 
TCOON,ioos:station:TCOON:043:1,2014-07-05T14:30:00Z,27.8838,-97.5332,0.0,4.0,1111122 
TCOON,ioos:station:TCOON:043:1,2014-07-05T15:30:00Z,27.8838,-97.5332,0.0,3.9,1111122 
TCOON,ioos:station:TCOON:043:1,2014-07-05T16:30:00Z,27.8838,-97.5332,0.0,3.9,1111122 
TCOON,ioos:station:TCOON:043:1,2014-07-05T17:30:00Z,27.8838,-97.5332,0.0,3.9,1111122 
TCOON,ioos:station:TCOON:043:1,2014-07-05T18:30:00Z,27.8838,-97.5332,0.0,3.8,1111122 
TCOON,ioos:station:TCOON:043:1,2014-07-08T00:00:00Z,27.8838,-97.5332,0.0,32.6,1111122 
TCOON,ioos:station:TCOON:043:1,2014-07-08T00:30:00Z,27.8838,-97.5332,0.0,32.7,1111122 
TCOON,ioos:station:TCOON:043:1,2014-07-08T01:30:00Z,27.8838,-97.5332,0.0,32.7,1111122 
TCOON,ioos:station:TCOON:043:1,2014-07-08T02:30:00Z,27.8838,-97.5332,0.0,32.7,1111122 
TCOON,ioos:station:TCOON:043:1,2014-07-08T03:30:00Z,27.8838,-97.5332,0.0,32.7,1111122 
TCOON,ioos:station:TCOON:043:1,2014-07-08T04:30:00Z,27.8838,-97.5332,0.0,32.7,1111122 
TCOON,ioos:station:TCOON:043:1,2014-07-08T05:30:00Z,27.8838,-97.5332,0.0,32.7,1111122 
TCOON,ioos:station:TCOON:043:1,2014-07-08T06:30:00Z,27.8838,-97.5332,0.0,32.7,1111122 
TCOON,ioos:station:TCOON:043:1,2014-07-08T07:30:00Z,27.8838,-97.5332,0.0,32.6,1111122 
TCOON,ioos:station:TCOON:043:1,2014-07-08T08:30:00Z,27.8838,-97.5332,0.0,32.6,1111122 
TCOON,ioos:station:TCOON:043:1,2014-07-08T09:30:00Z,27.8838,-97.5332,0.0,32.6,1111122 
TCOON,ioos:station:TCOON:043:1,2014-07-08T10:30:00Z,27.8838,-97.5332,0.0,32.6,1111122 
TCOON,ioos:station:TCOON:043:1,2014-07-08T11:30:00Z,27.8838,-97.5332,0.0,32.6,1111122 
TCOON,ioos:station:TCOON:043:1,2014-07-08T12:30:00Z,27.8838,-97.5332,0.0,32.5,1111122 
TCOON,ioos:station:TCOON:043:1,2014-07-08T13:30:00Z,27.8838,-97.5332,0.0,32.5,1111122 
TCOON,ioos:station:TCOON:043:1,2014-07-08T16:00:00Z,27.8838,-97.5332,0.0,3.7,1111122 
TCOON,ioos:station:TCOON:043:1,2014-07-08T16:30:00Z,27.8838,-97.5332,0.0,3.5,1111122 
TCOON,ioos:station:TCOON:043:1,2014-07-08T17:30:00Z,27.8838,-97.5332,0.0,3.4,1111122 
TCOON,ioos:station:TCOON:043:1,2014-07-08T18:30:00Z,27.8838,-97.5332,0.0,3.4,1111122 
TCOON,ioos:station:TCOON:043:1,2014-07-08T19:30:00Z,27.8838,-97.5332,0.0,3.6,1111122 
TCOON,ioos:station:TCOON:043:1,2014-07-08T20:30:00Z,27.8838,-97.5332,0.0,3.6,1111122 
TCOON,ioos:station:TCOON:043:1,2014-07-08T21:30:00Z,27.8838,-97.5332,0.0,3.8,1111122 
TCOON,ioos:station:TCOON:043:1,2014-07-08T22:30:00Z,27.8838,-97.5332,0.0,4.0,1111122 
TCOON,ioos:station:TCOON:043:1,2014-07-08T23:30:00Z,27.8838,-97.5332,0.0,3.9,1111122 
TCOON,ioos:station:TCOON:043:1,2014-07-09T00:30:00Z,27.8838,-97.5332,0.0,3.8,1111122 
TCOON,ioos:station:TCOON:043:1,2014-07-09T01:30:00Z,27.8838,-97.5332,0.0,3.7,1111122 
TCOON,ioos:station:TCOON:043:1,2014-07-09T02:30:00Z,27.8838,-97.5332,0.0,3.7,1111122 
TCOON,ioos:station:TCOON:043:1,2014-07-09T03:30:00Z,27.8838,-97.5332,0.0,3.8,1111122 
TCOON,ioos:station:TCOON:043:1,2014-07-09T04:30:00Z,27.8838,-97.5332,0.0,3.8,1111122 
TCOON,ioos:station:TCOON:043:1,2014-07-09T05:30:00Z,27.8838,-97.5332,0.0,3.7,1111122 
TCOON,ioos:station:TCOON:043:1,2014-07-09T06:30:00Z,27.8838,-97.5332,0.0,3.8,1111122 
TCOON,ioos:station:TCOON:043:1,2014-07-09T07:30:00Z,27.8838,-97.5332,0.0,3.8,1111122 
TCOON,ioos:station:TCOON:043:1,2014-07-09T08:30:00Z,27.8838,-97.5332,0.0,4.1,1111122 
TCOON,ioos:station:TCOON:043:1,2014-07-09T09:30:00Z,27.8838,-97.5332,0.0,4.1,1111122 
TCOON,ioos:station:TCOON:043:1,2014-07-09T10:30:00Z,27.8838,-97.5332,0.0,4.1,1111122 
TCOON,ioos:station:TCOON:043:1,2014-07-09T11:30:00Z,27.8838,-97.5332,0.0,4.2,1111122 
TCOON,ioos:station:TCOON:043:1,2014-07-09T12:30:00Z,27.8838,-97.5332,0.0,4.2,1111122 
TCOON,ioos:station:TCOON:043:1,2014-07-09T13:30:00Z,27.8838,-97.5332,0.0,4.0,1111122 
TCOON,ioos:station:TCOON:043:1,2014-07-09T14:30:00Z,27.8838,-97.5332,0.0,3.8,1111122 
TCOON,ioos:station:TCOON:043:1,2014-07-09T15:30:00Z,27.8838,-97.5332,0.0,3.5,1111122 
TCOON,ioos:station:TCOON:043:1,2014-07-09T16:30:00Z,27.8838,-97.5332,0.0,3.4,1111122 
TCOON,ioos:station:TCOON:043:1,2014-07-09T17:30:00Z,27.8838,-97.5332,0.0,3.4,1111122 
TCOON,ioos:station:TCOON:043:1,2014-07-09T18:30:00Z,27.8838,-97.5332,0.0,3.4,1111122 
TCOON,ioos:station:TCOON:043:1,2014-07-09T19:30:00Z,27.8838,-97.5332,0.0,3.4,1111122 
TCOON,ioos:station:TCOON:043:1,2014-07-09T20:30:00Z,27.8838,-97.5332,0.0,3.4,1111122 
TCOON,ioos:station:TCOON:043:1,2014-07-09T21:30:00Z,27.8838,-97.5332,0.0,3.4,1111122 
TCOON,ioos:station:TCOON:043:1,2014-07-09T22:30:00Z,27.8838,-97.5332,0.0,3.3,1111122 
TCOON,ioos:station:TCOON:043:1,2014-07-09T23:30:00Z,27.8838,-97.5332,0.0,3.4,1111122 
TCOON,ioos:station:TCOON:043:1,2014-07-10T00:30:00Z,27.8838,-97.5332,0.0,3.4,1111122 
TCOON,ioos:station:TCOON:043:1,2014-07-10T01:30:00Z,27.8838,-97.5332,0.0,3.4,1111122 
TCOON,ioos:station:TCOON:043:1,2014-07-10T02:30:00Z,27.8838,-97.5332,0.0,3.3,1111122 
TCOON,ioos:station:TCOON:043:1,2014-07-10T03:30:00Z,27.8838,-97.5332,0.0,3.4,1111122 
TCOON,ioos:station:TCOON:043:1,2014-07-10T04:30:00Z,27.8838,-97.5332,0.0,3.6,1111122 
TCOON,ioos:station:TCOON:043:1,2014-07-10T05:30:00Z,27.8838,-97.5332,0.0,3.7,1111122 
TCOON,ioos:station:TCOON:043:1,2014-07-10T06:30:00Z,27.8838,-97.5332,0.0,3.6,1111122 
TCOON,ioos:station:TCOON:043:1,2014-07-10T07:30:00Z,27.8838,-97.5332,0.0,3.8,1111122 
TCOON,ioos:station:TCOON:043:1,2014-07-10T08:30:00Z,27.8838,-97.5332,0.0,3.8,1111122 
TCOON,ioos:station:TCOON:043:1,2014-07-10T09:30:00Z,27.8838,-97.5332,0.0,3.8,1111122 
TCOON,ioos:station:TCOON:043:1,2014-07-10T10:30:00Z,27.8838,-97.5332,0.0,3.9,1111122 
TCOON,ioos:station:TCOON:043:1,2014-07-10T11:30:00Z,27.8838,-97.5332,0.0,3.9,1111122 
TCOON,ioos:station:TCOON:043:1,2014-07-10T12:30:00Z,27.8838,-97.5332,0.0,3.7,1111122 
TCOON,ioos:station:TCOON:043:1,2014-07-10T13:30:00Z,27.8838,-97.5332,0.0,3.4,1111122 
TCOON,ioos:station:TCOON:043:1,2014-07-10T14:30:00Z,27.8838,-97.5332,0.0,3.4,1111122 
TCOON,ioos:station:TCOON:043:1,2014-07-10T15:30:00Z,27.8838,-97.5332,0.0,3.2,1111122 
TCOON,ioos:station:TCOON:043:1,2014-07-10T16:30:00Z,27.8838,-97.5332,0.0,3.3,1111122 
TCOON,ioos:station:TCOON:043:1,2014-07-10T17:30:00Z,27.8838,-97.5332,0.0,3.4,1111122 
TCOON,ioos:station:TCOON:043:1,2014-07-10T18:30:00Z,27.8838,-97.5332,0.0,3.3,1111122 
TCOON,ioos:station:TCOON:043:1,2014-07-10T19:30:00Z,27.8838,-97.5332,0.0,3.4,1111122 
TCOON,ioos:station:TCOON:043:1,2014-07-10T20:30:00Z,27.8838,-97.5332,0.0,3.3,1111122 
TCOON,ioos:station:TCOON:043:1,2014-07-10T21:30:00Z,27.8838,-97.5332,0.0,3.3,1111122 
TCOON,ioos:station:TCOON:043:1,2014-07-10T22:30:00Z,27.8838,-97.5332,0.0,3.4,1111122 
TCOON,ioos:station:TCOON:043:1,2014-07-10T23:30:00Z,27.8838,-97.5332,0.0,3.3,1111122 
TCOON,ioos:station:TCOON:043:1,2014-07-11T00:30:00Z,27.8838,-97.5332,0.0,3.4,1111122 
TCOON,ioos:station:TCOON:043:1,2014-07-11T01:30:00Z,27.8838,-97.5332,0.0,3.1,1111122 
TCOON,ioos:station:TCOON:043:1,2014-07-11T03:30:00Z,27.8838,-97.5332,0.0,3.0,1111122 
TCOON,ioos:station:TCOON:043:1,2014-07-11T04:30:00Z,27.8838,-97.5332,0.0,3.2,1111122 
TCOON,ioos:station:TCOON:043:1,2014-07-11T05:30:00Z,27.8838,-97.5332,0.0,3.8,1111122 
TCOON,ioos:station:TCOON:043:1,2014-07-11T06:30:00Z,27.8838,-97.5332,0.0,4.0,1111122 
TCOON,ioos:station:TCOON:043:1,2014-07-11T07:30:00Z,27.8838,-97.5332,0.0,4.0,1111122 
TCOON,ioos:station:TCOON:043:1,2014-07-11T08:30:00Z,27.8838,-97.5332,0.0,4.0,1111122 
TCOON,ioos:station:TCOON:043:1,2014-07-11T09:30:00Z,27.8838,-97.5332,0.0,4.0,1111122 
TCOON,ioos:station:TCOON:043:1,2014-07-11T10:30:00Z,27.8838,-97.5332,0.0,3.9,1111122 
TCOON,ioos:station:TCOON:043:1,2014-07-11T11:30:00Z,27.8838,-97.5332,0.0,3.8,1111122 
TCOON,ioos:station:TCOON:043:1,2014-07-11T12:30:00Z,27.8838,-97.5332,0.0,3.1,1111122 
TCOON,ioos:station:TCOON:043:1,2014-07-11T13:30:00Z,27.8838,-97.5332,0.0,3.3,1111122 
TCOON,ioos:station:TCOON:043:1,2014-07-11T14:30:00Z,27.8838,-97.5332,0.0,3.2,1111122 
TCOON,ioos:station:TCOON:043:1,2014-07-11T15:30:00Z,27.8838,-97.5332,0.0,3.2,1111122 
TCOON,ioos:station:TCOON:043:1,2014-07-11T16:30:00Z,27.8838,-97.5332,0.0,3.1,1111122 
TCOON,ioos:station:TCOON:043:1,2014-07-11T17:30:00Z,27.8838,-97.5332,0.0,3.2,1111122 
TCOON,ioos:station:TCOON:043:1,2014-07-11T18:30:00Z,27.8838,-97.5332,0.0,3.1,1111122 
TCOON,ioos:station:TCOON:043:1,2014-07-11T19:30:00Z,27.8838,-97.5332,0.0,3.1,1111122 
TCOON,ioos:station:TCOON:043:1,2014-07-11T20:30:00Z,27.8838,-97.5332,0.0,3.2,1111122 
TCOON,ioos:station:TCOON:043:1,2014-07-11T21:30:00Z,27.8838,-97.5332,0.0,3.2,1111122 
TCOON,ioos:station:TCOON:043:1,2014-07-11T22:30:00Z,27.8838,-97.5332,0.0,3.1,1111122 
TCOON,ioos:station:TCOON:043:1,2014-07-11T23:30:00Z,27.8838,-97.5332,0.0,3.0,1111122 
TCOON,ioos:station:TCOON:043:1,2014-07-12T00:30:00Z,27.8838,-97.5332,0.0,3.1,1111122 
TCOON,ioos:station:TCOON:043:1,2014-07-12T01:30:00Z,27.8838,-97.5332,0.0,3.1,1111122 
TCOON,ioos:station:TCOON:043:1,2014-07-12T02:30:00Z,27.8838,-97.5332,0.0,3.1,1111122 
TCOON,ioos:station:TCOON:043:1,2014-07-12T03:30:00Z,27.8838,-97.5332,0.0,3.1,1111122 
TCOON,ioos:station:TCOON:043:1,2014-07-12T04:30:00Z,27.8838,-97.5332,0.0,3.0,1111122 
TCOON,ioos:station:TCOON:043:1,2014-07-12T05:30:00Z,27.8838,-97.5332,0.0,3.1,1111122 
TCOON,ioos:station:TCOON:043:1,2014-07-12T06:30:00Z,27.8838,-97.5332,0.0,3.5,1111122 
TCOON,ioos:station:TCOON:043:1,2014-07-12T07:30:00Z,27.8838,-97.5332,0.0,3.8,1111122 
TCOON,ioos:station:TCOON:043:1,2014-07-12T08:30:00Z,27.8838,-97.5332,0.0,3.9,1111122 
TCOON,ioos:station:TCOON:043:1,2014-07-12T09:30:00Z,27.8838,-97.5332,0.0,4.0,1111122 
TCOON,ioos:station:TCOON:043:1,2014-07-12T10:30:00Z,27.8838,-97.5332,0.0,4.0,1111122 
TCOON,ioos:station:TCOON:043:1,2014-07-12T11:30:00Z,27.8838,-97.5332,0.0,4.0,1111122 
TCOON,ioos:station:TCOON:043:1,2014-07-12T12:30:00Z,27.8838,-97.5332,0.0,4.0,1111122 
TCOON,ioos:station:TCOON:043:1,2014-07-12T13:30:00Z,27.8838,-97.5332,0.0,3.9,1111122 
TCOON,ioos:station:TCOON:043:1,2014-07-12T14:30:00Z,27.8838,-97.5332,0.0,3.7,1111122 
TCOON,ioos:station:TCOON:043:1,2014-07-12T15:30:00Z,27.8838,-97.5332,0.0,3.7,1111122 
TCOON,ioos:station:TCOON:043:1,2014-07-12T16:30:00Z,27.8838,-97.5332,0.0,3.5,1111122 
TCOON,ioos:station:TCOON:043:1,2014-07-12T17:30:00Z,27.8838,-97.5332,0.0,3.2,1111122 
TCOON,ioos:station:TCOON:043:1,2014-07-12T18:30:00Z,27.8838,-97.5332,0.0,3.1,1111122 
TCOON,ioos:station:TCOON:043:1,2014-07-12T19:30:00Z,27.8838,-97.5332,0.0,2.8,1111122 
TCOON,ioos:station:TCOON:043:1,2014-07-12T20:30:00Z,27.8838,-97.5332,0.0,2.8,1111122 
TCOON,ioos:station:TCOON:043:1,2014-07-12T21:30:00Z,27.8838,-97.5332,0.0,2.7,1111122 
TCOON,ioos:station:TCOON:043:1,2014-07-12T22:30:00Z,27.8838,-97.5332,0.0,2.7,1111122 
TCOON,ioos:station:TCOON:043:1,2014-07-12T23:30:00Z,27.8838,-97.5332,0.0,2.6,1111122 
TCOON,ioos:station:TCOON:043:1,2014-07-13T00:30:00Z,27.8838,-97.5332,0.0,2.7,1111122 
TCOON,ioos:station:TCOON:043:1,2014-07-13T01:30:00Z,27.8838,-97.5332,0.0,2.7,1111122 
TCOON,ioos:station:TCOON:043:1,2014-07-13T02:30:00Z,27.8838,-97.5332,0.0,2.7,1111122 
TCOON,ioos:station:TCOON:043:1,2014-07-13T03:30:00Z,27.8838,-97.5332,0.0,2.8,1111122 
TCOON,ioos:station:TCOON:043:1,2014-07-13T04:30:00Z,27.8838,-97.5332,0.0,2.7,1111122 
TCOON,ioos:station:TCOON:043:1,2014-07-13T05:30:00Z,27.8838,-97.5332,0.0,2.6,1111122 
TCOON,ioos:station:TCOON:043:1,2014-07-13T06:30:00Z,27.8838,-97.5332,0.0,2.7,1111122 
TCOON,ioos:station:TCOON:043:1,2014-07-13T07:30:00Z,27.8838,-97.5332,0.0,2.8,1111122 
TCOON,ioos:station:TCOON:043:1,2014-07-13T08:30:00Z,27.8838,-97.5332,0.0,3.2,1111122 
TCOON,ioos:station:TCOON:043:1,2014-07-13T09:30:00Z,27.8838,-97.5332,0.0,3.3,1111122 
TCOON,ioos:station:TCOON:043:1,2014-07-13T10:30:00Z,27.8838,-97.5332,0.0,3.3,1111122 
TCOON,ioos:station:TCOON:043:1,2014-07-13T11:30:00Z,27.8838,-97.5332,0.0,3.5,1111122 
TCOON,ioos:station:TCOON:043:1,2014-07-13T12:30:00Z,27.8838,-97.5332,0.0,3.6,1111122 
TCOON,ioos:station:TCOON:043:1,2014-07-13T13:30:00Z,27.8838,-97.5332,0.0,3.5,1111122 
TCOON,ioos:station:TCOON:043:1,2014-07-13T14:30:00Z,27.8838,-97.5332,0.0,3.6,1111122 
TCOON,ioos:station:TCOON:043:1,2014-07-13T15:30:00Z,27.8838,-97.5332,0.0,3.3,1111122 
TCOON,ioos:station:TCOON:043:1,2014-07-13T16:30:00Z,27.8838,-97.5332,0.0,3.1,1111122 
TCOON,ioos:station:TCOON:043:1,2014-07-13T17:30:00Z,27.8838,-97.5332,0.0,3.0,1111122 
TCOON,ioos:station:TCOON:043:1,2014-07-13T18:30:00Z,27.8838,-97.5332,0.0,2.8,1111122 
TCOON,ioos:station:TCOON:043:1,2014-07-13T19:30:00Z,27.8838,-97.5332,0.0,2.8,1111122 
TCOON,ioos:station:TCOON:043:1,2014-07-13T20:30:00Z,27.8838,-97.5332,0.0,2.7,1111122 
TCOON,ioos:station:TCOON:043:1,2014-07-13T21:30:00Z,27.8838,-97.5332,0.0,2.8,1111122 
TCOON,ioos:station:TCOON:043:1,2014-07-13T22:30:00Z,27.8838,-97.5332,0.0,2.7,1111122 
TCOON,ioos:station:TCOON:043:1,2014-07-13T23:30:00Z,27.8838,-97.5332,0.0,2.8,1111122 
TCOON,ioos:station:TCOON:043:1,2014-07-14T00:30:00Z,27.8838,-97.5332,0.0,2.8,1111122 
TCOON,ioos:station:TCOON:043:1,2014-07-14T01:30:00Z,27.8838,-97.5332,0.0,2.8,1111122 
TCOON,ioos:station:TCOON:043:1,2014-07-14T02:30:00Z,27.8838,-97.5332,0.0,2.8,1111122 
TCOON,ioos:station:TCOON:043:1,2014-07-14T03:30:00Z,27.8838,-97.5332,0.0,2.8,1111122 
TCOON,ioos:station:TCOON:043:1,2014-07-14T04:30:00Z,27.8838,-97.5332,0.0,2.9,1111122 
TCOON,ioos:station:TCOON:043:1,2014-07-14T05:30:00Z,27.8838,-97.5332,0.0,2.8,1111122 
TCOON,ioos:station:TCOON:043:1,2014-07-14T07:00:00Z,27.8838,-97.5332,0.0,2.8,1111122 
TCOON,ioos:station:TCOON:043:1,2014-07-14T07:30:00Z,27.8838,-97.5332,0.0,2.9,1111122 
TCOON,ioos:station:TCOON:043:1,2014-07-14T08:30:00Z,27.8838,-97.5332,0.0,3.1,1111122 
TCOON,ioos:station:TCOON:043:1,2014-07-14T09:30:00Z,27.8838,-97.5332,0.0,3.3,1111122 
TCOON,ioos:station:TCOON:043:1,2014-07-14T10:30:00Z,27.8838,-97.5332,0.0,3.5,1111122 
TCOON,ioos:station:TCOON:043:1,2014-07-14T11:30:00Z,27.8838,-97.5332,0.0,3.5,1111122 
TCOON,ioos:station:TCOON:043:1,2014-07-14T12:30:00Z,27.8838,-97.5332,0.0,3.4,1111122 
TCOON,ioos:station:TCOON:043:1,2014-07-14T13:30:00Z,27.8838,-97.5332,0.0,3.3,1111122 
TCOON,ioos:station:TCOON:043:1,2014-07-14T14:30:00Z,27.8838,-97.5332,0.0,3.2,1111122 
TCOON,ioos:station:TCOON:043:1,2014-07-14T15:30:00Z,27.8838,-97.5332,0.0,3.1,1111122 
TCOON,ioos:station:TCOON:043:1,2014-07-14T16:30:00Z,27.8838,-97.5332,0.0,3.0,1111122 
TCOON,ioos:station:TCOON:043:1,2014-07-14T17:30:00Z,27.8838,-97.5332,0.0,2.9,1111122 
TCOON,ioos:station:TCOON:043:1,2014-07-14T18:30:00Z,27.8838,-97.5332,0.0,2.9,1111122 